When you browse on this site, cookies collect data to enhance your experience and personalize the content and advertising you see.
Visit our Privacy Policy to learn more. By continuing to use the site, you agree to this use of cookies and data.
  • In Denmark
  • List of Countries
  • For 7 days
  • Water Temperature
  • Weather Map
  • Weather Widgets
  • user-avatar
    Login

    Hourly Weather Pazardzhik

    Today, 24 February, Monday

    Time Temperature Precipitation Wind Pressure Humidity
    00:00 +9°C° 0 mm 2 mps 744 mmHg 53%
    01:00 +9°C° 0 mm 2 mps 744 mmHg 53%
    02:00 +9°C° 0 mm 3 mps 743 mmHg 53%
    03:00 +9°C° 0 mm 3 mps 742 mmHg 54%
    04:00 +9°C° 0 mm 3 mps 741 mmHg 54%
    05:00 +9°C° 0 mm 2 mps 740 mmHg 55%
    06:00 +10°C° 0 mm 3 mps 740 mmHg 55%
    07:00 +10°C° 0 mm 3 mps 741 mmHg 55%
    08:00 +11°C° 0 mm 3 mps 740 mmHg 55%
    09:00 +11°C° 0 mm 3 mps 741 mmHg 55%
    10:00 +12°C° 0 mm 3 mps 741 mmHg 54%
    11:00 +13°C° 0 mm 3 mps 742 mmHg 53%
    12:00 +14°C° 0 mm 4 mps 742 mmHg 54%
    13:00 +14°C° 0 mm 5 mps 742 mmHg 56%
    14:00 +15°C° 0 mm 5 mps 742 mmHg 58%
    15:00 +14°C° 0 mm 6 mps 743 mmHg 56%
    16:00 +14°C° 0 mm 6 mps 743 mmHg 54%
    17:00 +13°C° 0 mm 6 mps 743 mmHg 53%
    18:00 +10°C° 0 mm 5 mps 744 mmHg 56%
    19:00 +10°C° 0 mm 4 mps 745 mmHg 59%
    20:00 +8°C° 0 mm 3 mps 746 mmHg 63%
    21:00 +7°C° 0 mm 3 mps 746 mmHg 63%
    22:00 +6°C° 0 mm 2 mps 747 mmHg 64%
    23:00 +6°C° 0 mm 2 mps 747 mmHg 64%

    Tomorrow, 25 February, Tuesday

    Time Temperature Precipitation Wind Pressure Humidity
    00:00 +6°C° 0 mm 2 mps 747 mmHg 62%
    01:00 +5°C° 0 mm 2 mps 747 mmHg 59%
    02:00 +5°C° 0 mm 2 mps 747 mmHg 57%
    03:00 +6°C° 0 mm 1 mps 747 mmHg 56%
    04:00 +6°C° 0 mm 1 mps 746 mmHg 55%
    05:00 +6°C° 0 mm 1 mps 745 mmHg 54%
    06:00 +6°C° 0 mm 1 mps 745 mmHg 55%
    07:00 +6°C° 0 mm 1 mps 745 mmHg 56%
    08:00 +7°C° 0 mm 1 mps 745 mmHg 57%
    09:00 +8°C° 0 mm 1 mps 745 mmHg 54%
    10:00 +10°C° 0 mm 1 mps 744 mmHg 50%
    11:00 +12°C° 0 mm 2 mps 744 mmHg 46%
    12:00 +13°C° 0 mm 2 mps 743 mmHg 46%
    13:00 +14°C° 0 mm 2 mps 742 mmHg 46%
    14:00 +15°C° 0 mm 2 mps 742 mmHg 46%
    15:00 +14°C° 0 mm 2 mps 741 mmHg 49%
    16:00 +14°C° 0 mm 1 mps 741 mmHg 53%
    17:00 +13°C° 0 mm 1 mps 740 mmHg 56%
    18:00 +12°C° 0 mm 1 mps 740 mmHg 59%
    19:00 +11°C° 0 mm 1 mps 740 mmHg 62%
    20:00 +10°C° 0 mm 1 mps 739 mmHg 65%
    21:00 +10°C° 0 mm 1 mps 739 mmHg 67%
    22:00 +10°C° 0 mm 1 mps 739 mmHg 68%
    23:00 +10°C° 0 mm 1 mps 738 mmHg 69%

    Day after tomorrow, 26 February, Wednesday

    Time Temperature Precipitation Wind Pressure Humidity
    00:00 +9°C° 0 mm 1 mps 738 mmHg 69%
    01:00 +9°C° 0 mm 1 mps 737 mmHg 70%
    02:00 +9°C° 0 mm 1 mps 737 mmHg 71%
    03:00 +9°C° 0 mm 1 mps 737 mmHg 71%
    04:00 +9°C° 0 mm 1 mps 736 mmHg 71%
    05:00 +9°C° 0 mm 1 mps 736 mmHg 71%
    06:00 +9°C° 0 mm 1 mps 735 mmHg 70%
    07:00 +9°C° 0 mm 1 mps 735 mmHg 69%
    08:00 +9°C° 0 mm 1 mps 735 mmHg 68%
    09:00 +11°C° 0 mm 1 mps 734 mmHg 63%
    10:00 +13°C° 0 mm 1 mps 734 mmHg 58%
    11:00 +15°C° 0 mm 1 mps 734 mmHg 52%
    12:00 +15°C° 0 mm 2 mps 733 mmHg 50%
    13:00 +16°C° 0 mm 2 mps 732 mmHg 49%
    14:00 +17°C° 0 mm 2 mps 732 mmHg 47%
    15:00 +16°C° 0 mm 2 mps 731 mmHg 49%
    16:00 +16°C° 0 mm 2 mps 731 mmHg 52%
    17:00 +16°C° 0 mm 2 mps 730 mmHg 54%
    18:00 +14°C° 0 mm 2 mps 731 mmHg 59%
    19:00 +13°C° 0 mm 2 mps 731 mmHg 64%
    20:00 +12°C° 0 mm 2 mps 731 mmHg 69%
    21:00 +10°C° 0 mm 2 mps 731 mmHg 70%
    22:00 +10°C° 0 mm 2 mps 731 mmHg 72%
    23:00 +10°C° 0 mm 2 mps 731 mmHg 74%

    27 February, Thursday

    Time Temperature Precipitation Wind Pressure Humidity
    00:00 +9°C° 0 mm 2 mps 731 mmHg 76%
    01:00 +9°C° 0 mm 2 mps 731 mmHg 78%
    02:00 +9°C° 0 mm 2 mps 730 mmHg 80%
    03:00 +8°C° 0 mm 2 mps 730 mmHg 80%
    04:00 +8°C° 0 mm 2 mps 729 mmHg 81%
    05:00 +8°C° 0 mm 2 mps 729 mmHg 81%
    06:00 +8°C° 0.3 mm 2 mps 729 mmHg 82%
    07:00 +8°C° 0.3 mm 2 mps 729 mmHg 82%
    08:00 +8°C° 0.3 mm 3 mps 729 mmHg 83%
    09:00 +9°C° 0.5 mm 3 mps 730 mmHg 76%
    10:00 +9°C° 0.5 mm 2 mps 730 mmHg 69%
    11:00 +10°C° 0.5 mm 2 mps 731 mmHg 62%
    12:00 +10°C° 0.2 mm 3 mps 731 mmHg 61%
    13:00 +8°C° 0.2 mm 4 mps 731 mmHg 60%
    14:00 +8°C° 0.2 mm 5 mps 731 mmHg 59%
    15:00 +7°C° 0.3 mm 6 mps 732 mmHg 59%
    16:00 +5°C° 0.3 mm 7 mps 732 mmHg 58%
    17:00 +5°C° 0.3 mm 8 mps 733 mmHg 58%
    18:00 +4°C° 0 mm 7 mps 734 mmHg 59%
    19:00 +3°C° 0 mm 6 mps 735 mmHg 61%
    20:00 +2°C° 0 mm 5 mps 736 mmHg 62%
    21:00 +2°C° 0 mm 5 mps 737 mmHg 63%
    22:00 +2°C° 0 mm 5 mps 738 mmHg 64%
    23:00 +1°C° 0 mm 5 mps 739 mmHg 65%

    28 February, Friday

    Time Temperature Precipitation Wind Pressure Humidity
    00:00 +1°C° 0 mm 4 mps 739 mmHg 65%
    01:00 +1°C° 0 mm 4 mps 740 mmHg 65%
    02:00 +1°C° 0 mm 3 mps 741 mmHg 65%
    03:00 +1°C° 0 mm 3 mps 741 mmHg 65%
    04:00 +1°C° 0 mm 3 mps 741 mmHg 66%
    05:00 +1°C° 0 mm 2 mps 741 mmHg 66%
    06:00 +2°C° 0 mm 2 mps 741 mmHg 62%
    07:00 +2°C° 0 mm 2 mps 741 mmHg 59%
    08:00 +3°C° 0 mm 2 mps 742 mmHg 55%
    09:00 +5°C° 0 mm 2 mps 742 mmHg 49%
    10:00 +6°C° 0 mm 2 mps 741 mmHg 42%
    11:00 +8°C° 0 mm 2 mps 741 mmHg 35%
    12:00 +9°C° 0 mm 2 mps 741 mmHg 36%
    13:00 +10°C° 0 mm 2 mps 740 mmHg 36%
    14:00 +12°C° 0 mm 2 mps 740 mmHg 37%
    15:00 +12°C° 0 mm 2 mps 740 mmHg 41%
    16:00 +10°C° 0 mm 2 mps 740 mmHg 46%
    17:00 +10°C° 0 mm 2 mps 739 mmHg 50%
    18:00 +9°C° 0 mm 2 mps 740 mmHg 58%
    19:00 +8°C° 0 mm 2 mps 741 mmHg 65%
    20:00 +5°C° 0 mm 3 mps 742 mmHg 73%
    21:00 +5°C° 0 mm 3 mps 742 mmHg 74%
    22:00 +5°C° 0 mm 3 mps 743 mmHg 75%
    23:00 +4°C° 0 mm 3 mps 743 mmHg 76%

    29 February, Saturday

    Time Temperature Precipitation Wind Pressure Humidity
    00:00 +5°C° 0 mm 2 mps 743 mmHg 75%
    01:00 +4°C° 0 mm 2 mps 744 mmHg 74%
    02:00 +4°C° 0 mm 2 mps 744 mmHg 73%
    03:00 +4°C° 0 mm 2 mps 744 mmHg 71%
    04:00 +4°C° 0 mm 2 mps 744 mmHg 69%
    05:00 +3°C° 0 mm 2 mps 744 mmHg 68%
    06:00 +5°C° 0 mm 1 mps 744 mmHg 66%
    07:00 +5°C° 0 mm 1 mps 744 mmHg 64%
    08:00 +6°C° 0 mm 1 mps 744 mmHg 62%
    09:00 +7°C° 0 mm 1 mps 744 mmHg 58%
    10:00 +9°C° 0 mm 1 mps 744 mmHg 53%
    11:00 +11°C° 0 mm 1 mps 744 mmHg 49%
    12:00 +12°C° 0 mm 2 mps 743 mmHg 49%
    13:00 +12°C° 0 mm 2 mps 742 mmHg 49%
    14:00 +13°C° 0 mm 2 mps 742 mmHg 48%
    15:00 +13°C° 0 mm 2 mps 741 mmHg 51%
    16:00 +12°C° 0 mm 1 mps 741 mmHg 54%
    17:00 +12°C° 0 mm 1 mps 741 mmHg 57%
    18:00 +11°C° 0 mm 1 mps 741 mmHg 61%
    19:00 +10°C° 0 mm 1 mps 741 mmHg 64%
    20:00 +9°C° 0 mm 1 mps 741 mmHg 68%
    21:00 +9°C° 0 mm 1 mps 741 mmHg 69%
    22:00 +9°C° 0 mm 1 mps 741 mmHg 70%
    23:00 +9°C° 0 mm 1 mps 740 mmHg 71%
    Show more